[[{"header":{"parameterUnit":"m.s-1","parameterCategory":1,"la1":30.2992,"la2":30.254,"lo1":-89.0895,"lo2":-89.0443,"dy":0.0025,"dx":0.0025,"nx":19,"ny":19,"refTime":"2026-04-19T09:00:00:Z","depth":0,"parameterNumber":2,"parameterNumberName":"U-component_of_WINDS"},"data":[0,0,0,-5.9638,-5.9642,-5.9783,-5.9784,-6.0036,-6.0038,0,0,0,0,0,0,0,0,0,0,0,-5.9639,-5.9642,-5.9637,-5.9642,-5.9783,-5.9784,-6.0035,-6.0038,0,0,0,0,0,0,0,0,0,0,0,-5.9637,-5.9641,-5.9645,-5.9643,-5.9783,-5.9784,-6.0034,-5.9902,0,0,0,0,0,0,0,0,0,0,-5.9753,-5.9796,-5.964,-5.9645,-5.9644,-5.9783,-5.9784,-5.9895,-5.9911,-6.0002,0,-6.0094,0,-6.0071,-6.006,-6.0061,0,0,0,-5.961,-5.9783,-5.9782,-5.9646,-5.9646,-5.9783,-5.9711,-5.9903,-5.9921,-6.0023,-6.0097,-6.0104,-6.0075,-6.0062,-6.0063,-6.0694,-6.0698,0,0,-5.9603,-5.9688,-5.977,-5.9796,-5.9778,-5.9706,-5.9716,-5.9913,-5.9999,-6.0097,-6.0109,-6.0079,-6.0064,-6.0066,-6.0689,-6.0695,0,0,0,-5.9602,-5.9684,-5.9676,-5.9787,-5.9807,-5.9711,-5.9722,-5.999,-5.998,-6.0111,-6.0082,-6.0066,-6.007,-6.0684,-6.0691,-6.0995,0,0,0,-5.9595,-5.9682,-5.9674,-5.9728,-5.9805,-5.9901,-5.9796,-5.9967,-5.9986,-6.0081,-6.0066,-6.0073,-6.0679,-6.0688,-6.0976,-6.1127,0,0,0,-5.9615,-5.9684,-5.9719,-5.9732,-5.9796,-5.9895,-5.9896,-5.9969,-5.9971,-6.0061,-6.0074,-6.0676,-6.0686,-6.0959,-6.1098,-6.132,0,0,0,-5.966,-5.9987,-5.9726,-6.0078,-5.9795,-6.0081,-5.9893,-6.0102,-6.0216,-6.0067,-6.068,-6.0691,-6.0954,-6.1081,-6.1303,-6.1525,-6.1625,0,0,-6.012,-6.0046,-6.0246,-6.0016,-6.0371,-6.0052,-6.0451,-6.0474,-6.0405,-6.0601,-6.0615,-6.0983,-6.1096,-6.1316,-6.2144,-6.2224,0,0,0,-6.0421,-6.0567,-6.0642,-6.0754,-6.0779,-6.0814,-6.0767,-6.0775,-6.0938,-6.0523,-6.1117,-6.1182,-6.1308,-6.1411,-6.1479,-6.1582,-6.074,-6.0739,-6.0738,-6.1198,-6.109,-6.1416,-6.1326,-6.1437,-6.1384,-6.1464,-6.1467,-6.1326,-6.1468,-6.1528,-6.2043,-6.2167,-6.2217,-6.2327,-6.1632,-6.1633,-6.1634,-6.1635,-6.1865,-6.2057,-6.1859,-6.2105,-6.199,-6.2195,-6.2156,-6.205,-6.2225,-6.1989,-6.2094,-6.1852,-6.2308,-6.2398,-6.1657,-6.1653,-6.165,-6.1648,-6.1647,-6.2367,-6.244,-6.2442,-6.2593,-6.2721,-6.2615,-6.2793,-6.2679,-6.2574,-6.2678,-6.273,-6.2725,-6.2709,-6.271,-6.2711,-6.2713,-6.2715,-6.2716,-6.2717,-6.2888,-6.2881,-6.3044,-6.3097,-6.3153,-6.3214,-6.3162,-6.3215,-6.3245,-6.3148,-6.3148,-6.2997,-6.237,-6.2219,-6.2745,-6.274,-6.2736,-6.2734,-6.2732,-6.3614,-6.3431,-6.3684,-6.3741,-6.3793,-6.3929,-6.3779,-6.3897,-6.3923,-6.4015,-6.3838,-6.3392,-6.3308,-6.3253,-6.3128,-6.3857,-6.3857,-6.3857,-6.3857,-6.4041,-6.3985,-6.4218,-6.4317,-6.44,-6.429,-6.4581,-6.4544,-6.4476,-6.4486,-6.4362,-6.4183,-6.4132,-6.4079,-6.4006,-6.3887,-6.4794,-6.4795,-6.4795,-6.4484,-6.443,-6.4701,-6.463,-6.4661,-6.4692,-6.4962,-6.5084,-6.4968,-6.4831,-6.4493,-6.4453,-6.4162,-6.4072,-6.3935,-6.3825,-6.3603,0,0]},{"header":{"parameterUnit":"m.s-1","parameterCategory":1,"la1":30.2992,"la2":30.254,"lo1":-89.0895,"lo2":-89.0443,"dy":0.0025,"dx":0.0025,"nx":19,"ny":19,"refTime":"2026-04-19T09:00:00:Z","depth":0,"parameterNumber":3,"parameterNumberName":"V-component_of_WINDS"},"data":[0,0,0,-4.1941,-4.1942,-4.2024,-4.2025,-4.2137,-4.2138,0,0,0,0,0,0,0,0,0,0,0,-4.1924,-4.1925,-4.194,-4.1943,-4.2024,-4.2025,-4.2137,-4.2138,0,0,0,0,0,0,0,0,0,0,0,-4.1923,-4.1924,-4.1926,-4.1943,-4.2024,-4.2025,-4.2137,-4.2072,0,0,0,0,0,0,0,0,0,0,-4.1991,-4.1983,-4.1924,-4.1926,-4.1944,-4.2024,-4.2025,-4.2068,-4.2076,-4.2104,0,-4.2134,0,-4.2138,-4.2147,-4.2147,0,0,0,-4.1937,-4.1977,-4.1992,-4.1926,-4.1944,-4.2024,-4.1986,-4.2072,-4.2081,-4.2114,-4.2135,-4.2139,-4.214,-4.2147,-4.2148,-4.2336,-4.2337,0,0,-4.1932,-4.1942,-4.1987,-4.1998,-4.1989,-4.1983,-4.1988,-4.2077,-4.21,-4.2136,-4.2142,-4.2142,-4.2148,-4.2149,-4.2335,-4.2336,0,0,0,-4.1923,-4.1939,-4.1952,-4.1994,-4.2008,-4.1986,-4.1992,-4.2096,-4.21,-4.2143,-4.2143,-4.2149,-4.215,-4.2334,-4.2335,-4.2401,0,0,0,-4.192,-4.1934,-4.1951,-4.1958,-4.2007,-4.2054,-4.2009,-4.2094,-4.2103,-4.2143,-4.2149,-4.2152,-4.2332,-4.2335,-4.2397,-4.243,0,0,0,-4.1916,-4.1933,-4.1948,-4.1958,-4.1994,-4.2052,-4.2061,-4.2096,-4.2104,-4.2147,-4.2152,-4.2331,-4.2334,-4.2393,-4.2424,-4.2481,0,0,0,-4.1914,-4.2007,-4.1949,-4.2052,-4.1993,-4.2093,-4.206,-4.2134,-4.2179,-4.215,-4.2332,-4.2335,-4.2391,-4.2419,-4.2476,-4.2529,-4.2553,0,0,-4.2036,-4.2022,-4.2082,-4.2033,-4.2146,-4.208,-4.2202,-4.2233,-4.2228,-4.23,-4.2304,-4.2398,-4.2423,-4.248,-4.2685,-4.2704,0,0,0,-4.2123,-4.2166,-4.2194,-4.2238,-4.2265,-4.2289,-4.2301,-4.2312,-4.2372,-4.2268,-4.2435,-4.2449,-4.2482,-4.2507,-4.2523,-4.2549,-4.2348,-4.2347,-4.2347,-4.2311,-4.2299,-4.2396,-4.2393,-4.2435,-4.2445,-4.2477,-4.2493,-4.247,-4.2509,-4.253,-4.2656,-4.2685,-4.2697,-4.2725,-4.2558,-4.2558,-4.2559,-4.2559,-4.2487,-4.2545,-4.2509,-4.259,-4.2576,-4.2643,-4.2655,-4.2635,-4.2693,-4.264,-4.2668,-4.2609,-4.2718,-4.2741,-4.2564,-4.2563,-4.2562,-4.2562,-4.2561,-4.2607,-4.2632,-4.2645,-4.2704,-4.275,-4.2743,-4.2801,-4.2786,-4.2772,-4.28,-4.2818,-4.2817,-4.2812,-4.281,-4.281,-4.2811,-4.2811,-4.2812,-4.2812,-4.2726,-4.2738,-4.2789,-4.2822,-4.2846,-4.2876,-4.2885,-4.2908,-4.2929,-4.2913,-4.2913,-4.2883,-4.2732,-4.2693,-4.2819,-4.2817,-4.2816,-4.2816,-4.2815,-4.2907,-4.2863,-4.2942,-4.2966,-4.3002,-4.3047,-4.3027,-4.3074,-4.309,-4.3118,-4.3082,-4.2974,-4.2957,-4.2945,-4.2912,-4.3086,-4.3086,-4.3086,-4.3086,-4.3007,-4.2997,-4.3072,-4.311,-4.3147,-4.3136,-4.3221,-4.3228,-4.3228,-4.3236,-4.3209,-4.3165,-4.3153,-4.3144,-4.3126,-4.3096,-4.3313,-4.3313,-4.3313,-4.3115,-4.3108,-4.3185,-4.3185,-4.3211,-4.3233,-4.3312,-4.3356,-4.3347,-4.3322,-4.3242,-4.3232,-4.3161,-4.314,-4.3112,-4.3086,-4.303,0,0]}]]